This demonstration page uses our WeatherBlox Daily Observations layout. Learn more.

Left ArrowRight Arrow

41.12389, -100.76542

Hourly Observations for February 10, 2017

Temp ( °F °C ) Dew Point ( °F °C ) Humidity (%) Winds ( mph kmh ) Pressure ( in mb ) Visibility ( mi km ) Precip ( " mm )
12:53 am 00:53 Clear 32 0 23 -5 69 69 Calm 29.80 1009 10 16 0.00 0.00
1:53 am 01:53 Clear 27 -2.8 22 -5.6 81 81 WNW 3 6 29.79 1009 10 16 0.00 0.00
2:53 am 02:53 Clear 26 -3.3 22 -5.6 84 84 NW 6 9 29.77 1008 10 16 0.00 0.00
3:53 am 03:53 Clear 27 -2.8 22 -5.6 81 81 NW 6 9 29.75 1008 10 16 0.00 0.00
4:53 am 04:53 Clear 27 -2.8 22 -5.6 81 81 WNW 6 9 29.76 1008 10 16 0.00 0.00
5:53 am 05:53 Clear 26 -3.3 22 -5.6 84 84 WNW 6 9 29.76 1008 10 16 0.00 0.00
6:53 am 06:53 Clear 28 -2.2 24 -4.4 85 85 NW 6 9 29.78 1008 10 16 0.00 0.00
7:53 am 07:53 Sunny 28 -2.2 25 -3.9 88 88 W 6 9 29.78 1008 10 16 0.00 0.00
8:53 am 08:53 Sunny 34 1.1 28 -2.2 79 79 WNW 3 6 29.78 1009 10 16 0.00 0.00
9:53 am 09:53 Sunny 40 4.4 31 -0.6 70 70 WNW 5 7 29.77 1008 10 16 0.00 0.00
10:53 am 10:53 Sunny 51 10.6 33 0.6 50 50 SSW 9 15 29.77 1008 10 16 0.00 0.00
11:53 am 11:53 Sunny 60 15.6 35 1.7 39 39 WSW 6 9 29.73 1007 10 16 0.00 0.00
12:53 pm 12:53 Sunny 64 17.8 34 1.1 33 33 Calm 29.72 1007 10 16 0.00 0.00
1:53 pm 13:53 Sunny 64 17.8 35 1.7 34 34 Calm 29.72 1006 10 16 0.00 0.00
2:53 pm 14:53 Sunny 59 15 35 1.7 41 41 Calm 29.73 1007 10 16 0.00 0.00
3:53 pm 15:53 Sunny 63 17.2 35 1.7 35 35 Calm 29.72 1006 10 16 0.00 0.00
4:53 pm 16:53 Sunny 58 14.4 34 1.1 41 41 ESE 6 9 29.73 1007 10 16 0.00 0.00
5:53 pm 17:53 Sunny 55 12.8 34 1.1 45 45 NE 5 7 29.76 1008 10 16 0.00 0.00
6:53 pm 18:53 Clear 48 8.9 33 0.6 56 56 ESE 6 9 29.80 1009 10 16 0.00 0.00
7:53 pm 19:53 Clear 47 8.3 33 0.6 59 59 ENE 6 9 29.80 1009 10 16 0.00 0.00
8:53 pm 20:53 Clear 42 5.6 31 -0.6 65 65 Calm 29.80 1009 10 16 0.00 0.00
9:53 pm 21:53 Clear 40 4.4 31 -0.6 70 70 Calm 29.81 1010 10 16 0.00 0.00
10:53 pm 22:53 Clear 44 6.7 33 0.6 65 65 NE 3 6 29.78 1009 10 16 0.00 0.00
11:53 pm 23:53 Clear 38 3.3 31 -0.6 76 76 Calm 29.79 1009 10 16 0.00 0.00

Powered by AerisWeather